Regional Weather Roundup
Issued by NWS Charleston, SC

Current Version | Previous Version | Graphics & Text | Print | Product List | Glossary On
Versions: 1 2 3 4 5 6 7 8 9 10 11 12 13 14 15 16 17 18 19 20 21 22 23 24 25 26 27 28 29 30 31 32 33 34 35 36 37 38 39 40 41 42 43 44 45 46 47 48 49 50
000 ASUS42 KCHS 280925 RWRCHS REGIONAL WEATHER ROUNDUP NATIONAL WEATHER SERVICE CHARLESTON SC 400 AM EST WED JAN 28 2015 NOTE: "FAIR" INDICATES FEW OR NO CLOUDS BELOW 12,000 FEET WITH NO SIGNIFICANT WEATHER AND/OR OBSTRUCTIONS TO VISIBILITY. NOT ALL STATIONS ARE QUALITY CONTROLLED BY THE NATIONAL WEATHER SERVICE. USE DATA WITH CAUTION...ESPECIALLY DEWPOINT OBSERVATIONS. SCZ027-030-031-034>040-042>050-281000- ...SOUTHEAST SOUTH CAROLINA... CITY SKY/WX TMP DP RH WIND PRES REMARKS N CHARLESTON CLEAR 33 26 75 NW6 30.09R WCI 28 WATERFRONT PRK N/A 37 N/A N/A NW5 N/A WCI 34 MOUNT PLEASANT LGT RAIN N/A N/A N/A NW6 30.08R PINOPOLIS NOT AVBL MONCKS CORNER FAIR 39 23 52 N8 30.08R WCI 34 SUMMERVILLE NOT AVBL BEAUFORT MCAS CLEAR 38 27 64 N9 30.10R WCI 31 BEAUFORT ARPT FAIR 37 32 81 NW8 30.09S WCI 31 HILTON HEAD IS CLEAR 39 30 70 N8G17 30.11R WCI 34 WALTERBORO SUNNY 32 28 86 NW3 30.11R ALLENDALE FAIR 32 27 80 CALM 30.11R ...SOUTHERN MIDLANDS AND PEE DEE... CITY SKY/WX TMP DP RH WIND PRES REMARKS GEORGETOWN NOT AVBL KINGSTREE NOT AVBL ORANGEBURG CLEAR 32 25 75 NW3 30.09R BARNWELL N/A 32 28 86 NW5 30.12R WCI 27 AIKEN FAIR 27 27 100 W3 30.13R MANNING FAIR 30 28 93 CALM 30.09R COLUMBIA CLEAR 35 22 58 N6 30.10R WCI 30 SUMTER CLEAR 33 19 57 N8 30.08R WCI 26 FLORENCE CLEAR 33 17 51 N12 30.09R WCI 24 MYRTLE BEACH CLEAR 34 18 51 NW8 30.09R WCI 27 N MYRTLE BEACH CLEAR 33 17 51 N5 30.06R WCI 29 $$ GAZ063-065-086>088-099>101-113>116-118-119-134>141-150-281000- ...SOUTHEAST GEORGIA... CITY SKY/WX TMP DP RH WIND PRES REMARKS SAVANNAH ARPT CLEAR 36 28 73 NW5 30.11R WCI 32 HUNTER AAF CLEAR 36 29 76 NW6 30.08R WCI 32 FORT STEWART CLEAR 34 29 83 NW3 30.09S STATESBORO CLEAR 30 30 100 CALM 30.11R SYLVANIA SUNNY 31 31 98 CALM 30.12R CLAXTON FAIR 32 32 100 CALM 30.12R ...CSRA...CENTRAL AND FAR SOUTHEAST GEORGIA... CITY SKY/WX TMP DP RH WIND PRES REMARKS THOMSON CLEAR 29 29 99 CALM 30.16R AUGUSTA-BUSH CLEAR 26 24 92 W3 30.12R AUGUSTA-DANIEL CLEAR 35 27 72 NW3 30.11R SWAINSBORO FAIR 30 30 100 CALM 30.12S VIDALIA CLEAR 34 32 93 CALM 30.12R EASTMAN FAIR 32 32 100 CALM 30.16R HAZLEHURST FAIR 35 34 98 CALM 30.12R ALMA CLEAR 34 29 82 W3 30.12R WAYCROSS CLEAR 38 33 82 NW6 30.12S WCI 33 JESUP FAIR 36 34 93 CALM 30.12R BAXLEY FAIR 37 32 81 NW3 30.12R BRUNSWICK CLEAR 36 32 87 W5 30.11S WCI 32 SAINT SIMONS CLEAR 40 30 67 NW8 30.10S WCI 34 $$ SCZ027-028-034-036>038-045-046-048>050-GAZ119-141-281000- ...LAKE AND SUPPLEMENTAL COASTAL OBSERVATIONS... STATION/POSITION TIME TEMP WIND PRES WAVE SWELL AIR SEA DIR/SP/G HT/PER HT/PER/DIR (UTC) (F) (DEG/KT/KT) (MB) (FT/S) (FT/S/D) UPR LAKE MARION NOT AVBL WINYAH BAY 0845 36 340/ 5 1017.0R LAKE MURRAY 0800 33 340/ 1/ 4 1017.9R ACE BASIN NERRS NOT AVBL FORT PULASKI 0900 40 52 330/ 10/ 13 1019.6R SAPELO ISLAND 0900 39 330/ 7 1019.0S $$ ANZ835-935-AMZ111-154-330-350-352-354-370-450-454-472-281000- ...C-MAN AND BUOY OBSERVATIONS... STATION/POSITION TIME TEMP WIND PRES WAVE SWELL AIR SEA DIR/SP/G HT/PER HT/PER/DIR (UTC) (F) (DEG/KT/KT) (MB) (FT/S) (FT/S/D) BUOY 41004 0850 47 67 350/ 19/ 25 1016.4R 5/ 5 2/10 BUOY 41008 0850 45 54 350/ 17/ 21 1018.2R 3/ 5 FOLLY BEACH CMAN 0900 39 330/ 7/ 10 1018.9R CAPERS NEARSHORE 0800 41 20/ 16/ 19 N/A FRIPP NEARSHORE 0800 44 350/ 16/ 19 N/A STATION/POSITION TIME TEMP WIND PRES WAVE SWELL AIR SEA DIR/SP/G HT/PER HT/PER/DIR (UTC) (F) (DEG/KT/KT) (MB) (FT/S) (FT/S/D) 5E ST. MARYS GA 0822 58 N/A 3/ 4 FRYING PAN BUOY 0850 43 65 340/ 21/ 25 1016.2R 6/ 5 2/ 50/12 BUOY 41025 0850 39 59 340/ 17/ 23 1014.2R 8/13 7/ 40/13 CAPE LOOKOUT NC 0900 36 340/ 15/ 17 1015.7R BUOY 41002 0850 54 71 310/ 16/ 23 1012.4R 12/13 10/13 BUOY 41010 0820 62 75 310/ 17/ 21 1015.2R ST AUGUSTINE FL 0900 44 320/ 8/ 10 1019.6R $$

USA.gov is the U.S. government's official web portal to all federal, state and local government web resources and services.